Weather History for Provo, UT

Change the Weather History Date:

Tuesday, September 20, 2011

  Actual Average Record
Temperature  
Mean Temperature 62 °F -  
Max Temperature 77 °F 72 °F 83 °F (1984)
Min Temperature 48 °F 45 °F 38 °F (1983)
Degree Days  
Heating Degree Days 2    
Growing Degree Days 12 (Base 50)    
Moisture  
Dew Point 45 °F    
Average Humidity 60    
Maximum Humidity 87    
Minimum Humidity 29    
Precipitation  
Precipitation 0.00 in - - ()
Sea Level Pressure  
Sea Level Pressure 30.15 in    
Wind  
Wind Speed 4 mph (SSE)    
Max Wind Speed 9 mph    
Max Gust Speed -    
Visibility 11 miles    
Events      
Averages and records for this station are not official NWS values.
T = Trace of Precipitation, MM = Missing Value Source: NWS Daily Summary

Daily Weather History Graph

Daily Weather History Graph

Search for Another Location

Airport:

Trip Planner

Search our weather history database for the weather conditions in past years. The results will help you decide how hot, cold, wet, or windy it might be!

Date:

Astronomy

Sep. 20, 2011 Rise Set
Actual Time 7:12 AM MDT 7:27 PM MDT
Civil Twilight 6:45 AM MDT 7:54 PM MDT
Nautical Twilight 6:13 AM MDT 8:26 PM MDT
Astronomical Twilight 5:40 AM MDT 8:58 PM MDT
Moon No Moon Rise 2:54 PM MDT
Length of Visible Light 13h 09m
Length of Day
12h 15m
Waning Gibbous, 48% of the Moon is Illuminated
Sep 20
Waning Gibbous
Sep 27
New
Oct 3
First Quarter
Oct 11
Full
Oct 19
Last Quarter

Hourly Weather History & Observations

Time (MDT) Temp. Dew Point Humidity Pressure Visibility Wind Dir Wind Speed Gust Speed Precip Events Conditions
12:15 AM 57.2 °F 46.4 °F 67% 30.14 in 10.0 mi East 3.5 mph - N/A   Clear
12:35 AM 57.2 °F 46.4 °F 67% 30.14 in 10.0 mi SE 8.1 mph - N/A   Clear
12:55 AM 55.4 °F 46.4 °F 72% 30.14 in 10.0 mi East 4.6 mph - N/A   Clear
1:55 AM 55.4 °F 44.6 °F 67% 30.15 in 10.0 mi SSE 4.6 mph - N/A   Clear
2:15 AM 55.4 °F 46.4 °F 72% 30.15 in 10.0 mi SSE 3.5 mph - N/A   Clear
2:35 AM 53.6 °F 46.4 °F 77% 30.15 in 10.0 mi SE 3.5 mph - N/A   Clear
2:55 AM 51.8 °F 46.4 °F 82% 30.15 in 10.0 mi Calm Calm - N/A   Clear
3:35 AM 51.8 °F 46.4 °F 82% 30.15 in 10.0 mi Calm Calm - N/A   Clear
3:55 AM 53.6 °F 44.6 °F 72% 30.15 in 10.0 mi SW 5.8 mph - N/A   Clear
4:15 AM 55.4 °F 42.8 °F 63% 30.15 in 10.0 mi Calm Calm - N/A   Clear
4:35 AM 53.6 °F 42.8 °F 67% 30.15 in 10.0 mi South 3.5 mph - N/A   Clear
4:55 AM 55.4 °F 42.8 °F 63% 30.15 in 10.0 mi SE 3.5 mph - N/A   Clear
5:35 AM 55.4 °F 39.2 °F 54% 30.16 in 10.0 mi NW 5.8 mph - N/A   Clear
5:55 AM 53.6 °F 39.2 °F 58% 30.16 in 10.0 mi Calm Calm - N/A   Clear
6:15 AM 51.8 °F 41.0 °F 67% 30.17 in 10.0 mi SSE 3.5 mph - N/A   Clear
6:35 AM 51.8 °F 41.0 °F 67% 30.17 in 10.0 mi SE 4.6 mph - N/A   Clear
6:50 AM 48.2 °F 44.6 °F 87% 30.18 in 15.0 mi Calm Calm - N/A   Clear
8:48 AM 57.2 °F 44.6 °F 63% 30.20 in 15.0 mi ESE 5.8 mph - N/A   Clear
11:50 AM 66.2 °F 42.8 °F 43% 30.22 in 15.0 mi Calm Calm - N/A   Clear
12:48 PM 69.8 °F 46.4 °F 43% 30.19 in 15.0 mi SW 3.5 mph - N/A   Partly Cloudy
1:47 PM 71.6 °F 39.2 °F 31% 30.18 in 15.0 mi WSW 4.6 mph - N/A   Partly Cloudy
2:47 PM 73.4 °F 42.8 °F 33% 30.16 in 15.0 mi WSW 4.6 mph - N/A   Partly Cloudy
3:50 PM 77.0 °F 42.8 °F 29% 30.14 in 15.0 mi Variable 5.8 mph - N/A   Partly Cloudy
4:50 PM 77.0 °F 46.4 °F 34% 30.12 in 15.0 mi WNW 9.2 mph - N/A   Partly Cloudy
5:47 PM 75.2 °F 44.6 °F 34% 30.12 in 15.0 mi NW 8.1 mph - N/A   Partly Cloudy
7:49 PM 68.0 °F 48.2 °F 49% 30.12 in 10.0 mi WNW 9.2 mph - N/A   Partly Cloudy
8:50 PM 66.2 °F 46.4 °F 49% 30.12 in 15.0 mi WNW 8.1 mph - N/A   Partly Cloudy
9:15 PM 62.6 °F 46.4 °F 55% 30.13 in 10.0 mi East 5.8 mph - N/A   Clear
9:35 PM 62.6 °F 44.6 °F 52% 30.14 in 10.0 mi ENE 3.5 mph - N/A   Clear
9:55 PM 60.8 °F 46.4 °F 59% 30.14 in 10.0 mi East 4.6 mph - N/A   Clear
10:15 PM 60.8 °F 48.2 °F 63% 30.14 in 10.0 mi SE 5.8 mph - N/A   Clear
10:35 PM 60.8 °F 48.2 °F 63% 30.14 in 10.0 mi Calm Calm - N/A   Clear
10:55 PM 57.2 °F 50.0 °F 77% 30.15 in 10.0 mi Calm Calm - N/A   Clear
11:15 PM 57.2 °F 48.2 °F 72% 30.15 in 10.0 mi SE 5.8 mph - N/A   Clear
11:35 PM 57.2 °F 48.2 °F 72% 30.15 in 10.0 mi SE 3.5 mph - N/A   Clear
11:55 PM 55.4 °F 46.4 °F 72% 30.15 in 10.0 mi Calm Calm - N/A   Clear